This is the latest recevied weather packets stored in our database for station/object W6DSP. If no packets are shown the sender has not sent any weather packets the latest 10 day(s).
| Time | Temp. | Humidity | Pressure | Rain* | Wind** | Luminosity | Snow |
|---|---|---|---|---|---|---|---|
| 1777632840 | 4.44° C | 89% | 1012.6 hPa | 0 mm | - | - | - |
| 1777632126 | 4.44° C | 89% | 1012.8 hPa | 0 mm | - | - | - |
| 1777631398 | 5° C | 89% | 1013.2 hPa | 0 mm | - | - | - |
| 1777630667 | 5° C | 89% | 1013.2 hPa | 0 mm | - | - | - |
| 1777629911 | 5° C | 89% | 1013.2 hPa | 0 mm | - | - | - |
| 1777629198 | 5.56° C | 89% | 1013.2 hPa | 0 mm | - | - | - |
| 1777628449 | 5.56° C | 89% | 1013.2 hPa | 0 mm | - | - | - |
| 1777627745 | 6.11° C | 89% | 1013.1 hPa | 0 mm | - | - | - |
| 1777627016 | 6.67° C | 89% | 1013.2 hPa | 0 mm | - | - | - |
| 1777626314 | 7.22° C | 90% | 1013.2 hPa | 0 mm | - | - | - |
| 1777625616 | 7.22° C | 90% | 1013.2 hPa | 1.02 mm | - | - | - |
| 1777624881 | 7.22° C | 90% | 1013.1 hPa | 1.27 mm | - | - | - |
| 1777624182 | 7.22° C | 90% | 1013 hPa | 3.05 mm | - | - | - |
| 1777623468 | 7.78° C | 90% | 1013.5 hPa | 3.3 mm | - | - | - |
| 1777622765 | 8.33° C | 90% | 1013.2 hPa | 6.35 mm | - | - | - |
| 1777622052 | 8.33° C | 90% | 1013.2 hPa | 1.52 mm | - | - | - |
| 1777620597 | 8.33° C | 89% | 1013.4 hPa | 2.03 mm | - | - | - |
| 1777619888 | 8.33° C | 90% | 1013.5 hPa | 1.52 mm | - | - | - |
| 1777619162 | 8.33° C | 90% | 1013.5 hPa | 0 mm | - | - | - |
| 1777617690 | 8.33° C | 89% | 1013.8 hPa | 1.02 mm | - | - | - |
| 1777616991 | 8.89° C | 89% | 1014 hPa | 1.52 mm | - | - | - |
| 1777616238 | 8.89° C | 89% | 1014.1 hPa | 1.27 mm | - | - | - |
| 1777615516 | 8.89° C | 89% | 1014.3 hPa | 2.29 mm | - | - | - |
| 1777614764 | 8.89° C | 89% | 1014.5 hPa | 0 mm | - | - | - |
| 1777614061 | 8.89° C | 88% | 1014.4 hPa | 0 mm | - | - | - |
* Rain latest hour (hover to see other rain measurements)
** Current wind speed in m/s (hover to see current wind gust speed)